This demonstration page uses our WeatherBlox Daily Observations layout. Learn more.

38.89511, -77.03637

Hourly Observations for June 1, 2020

Temp ( °F °C ) Dew Point ( °F °C ) Humidity (%) Winds ( mph kmh ) Pressure ( in mb ) Visibility ( mi km ) Precip ( " mm )
12:52 am 00:52 Mostly Clear 62 16.7 38 3.3 41 41 NNW 13 20 30.2 1023 10 16.0934 0 0
1:52 am 01:52 Mostly Clear 60 15.6 39 3.9 46 46 NNW 12 19 30.23 1024 10 16.0934 0 0
2:52 am 02:52 Mostly Clear 57 13.9 40 4.4 53 53 NNW 8 13 30.24 1024 10 16.0934 0 0
3:52 am 03:52 Clear 57 13.9 40 4.4 53 53 N 9 15 30.26 1025 10 16.0934 0 0
4:52 am 04:52 Clear 57 13.9 39 3.9 51 51 N 10 17 30.28 1025 10 16.0934 0 0
5:52 am 05:52 Mostly Cloudy 56 13.3 40 4.4 55 55 NNW 5 7 30.29 1026 10 16.0934 0 0
6:52 am 06:52 Partly Cloudy 57 13.9 42 5.6 58 58 NNW 8 13 30.31 1027 10 16.0934 0 0
7:52 am 07:52 Partly Cloudy 61 16.1 42 5.6 50 50 NNW 7 11 30.33 1027 10 16.0934 0 0
8:52 am 08:52 Partly Cloudy 63 17.2 39 3.9 41 41 N 9 15 30.35 1028 10 16.0934 0 0
9:52 am 09:52 Partly Cloudy 65 18.3 40 4.4 40 40 WNW 6 9 30.35 1028 10 16.0934 0 0
10:52 am 10:52 Partly Cloudy 66 18.9 38 3.3 36 36 undefined N/A 30.32 1027 10 16.0934 0 0
11:52 am 11:52 Mostly Sunny 67 19.4 39 3.9 36 36 SSW 7 11 30.3 1026 10 16.0934 0 0
12:52 pm 12:52 Mostly Sunny 71 21.7 37 2.8 29 29 VRB 7 11 30.27 1025 10 16.0934 0 0
1:52 pm 13:52 Mostly Sunny 72 22.2 41 5 33 33 NNW 14 22 30.24 1024 10 16.0934 0 0
2:52 pm 14:52 Mostly Sunny 73 22.8 40 4.4 30 30 NNW 9 15 30.23 1024 10 16.0934 0 0
3:52 pm 15:52 Partly Cloudy 74 23.3 40 4.4 29 29 NNE 10 17 30.21 1023 10 16.0934 0 0
4:52 pm 16:52 Partly Cloudy 74 23.3 40 4.4 29 29 SW 5 7 30.19 1022 10 16.0934 0 0
5:52 pm 17:52 Mostly Sunny 75 23.9 39 3.9 27 27 SW 5 7 30.16 1022 10 16.0934 0 0
6:52 pm 18:52 Mostly Cloudy 75 23.9 40 4.4 28 28 Calm 30.15 1021 10 16.0934 0 0
7:52 pm 19:52 Mostly Cloudy 71 21.7 39 3.9 31 31 SSW 7 11 30.16 1021 10 16.0934 0 0
8:52 pm 20:52 Mostly Cloudy 68 20 42 5.6 39 39 SSW 9 15 30.16 1021 10 16.0934 0 0
9:52 pm 21:52 Mostly Cloudy 66 18.9 43 6.1 43 43 SSW 9 15 30.18 1022 10 16.0934 0 0
10:52 pm 22:52 Mostly Cloudy 65 18.3 44 6.7 47 47 S 9 15 30.19 1022 10 16.0934 0 0
11:52 pm 23:52 Mostly Cloudy 64 17.8 47 8.3 54 54 SSW 8 13 30.19 1022 10 16.0934 0 0

Powered by AerisWeather